This is the latest recevied weather packets stored in our database for station/object N1IJV-10. If no packets are shown the sender has not sent any weather packets the latest 10 day(s).
| Time | Temp. | Humidity | Pressure | Rain* | Wind** | Luminosity | Snow |
|---|---|---|---|---|---|---|---|
| 1778026599 | 11.67° C | 46% | 1007.7 hPa | 0 mm | - | 14 W/m² | - |
| 1778026297 | 12.22° C | 49% | 1007.8 hPa | 0 mm | - | 17 W/m² | - |
| 1778025994 | 12.22° C | 47% | 1008.1 hPa | 0 mm | - | 14 W/m² | - |
| 1778025691 | 12.22° C | 48% | 1007.8 hPa | 0 mm | - | 15 W/m² | - |
| 1778025389 | 12.22° C | 47% | 1007.8 hPa | 0 mm | - | 16 W/m² | - |
| 1778025086 | 12.22° C | 50% | 1007.7 hPa | 0 mm | - | 23 W/m² | - |
| 1778024778 | 12.22° C | 47% | 1007.9 hPa | 0 mm | - | 25 W/m² | - |
| 1778024474 | 12.22° C | 46% | 1007.6 hPa | 0 mm | - | 26 W/m² | - |
| 1778024172 | 12.22° C | 49% | 1007.8 hPa | 0 mm | - | 28 W/m² | - |
| 1778023869 | 12.22° C | 45% | 1007.8 hPa | 0 mm | - | 26 W/m² | - |
| 1778023567 | 12.22° C | 47% | 1008 hPa | 0 mm | - | 29 W/m² | - |
| 1778023264 | 12.22° C | 44% | 1008 hPa | 0 mm | - | 31 W/m² | - |
| 1778022961 | 12.78° C | 46% | 1008.1 hPa | 0 mm | - | 34 W/m² | - |
| 1778022660 | 12.78° C | 43% | 1007.9 hPa | 0 mm | - | 50 W/m² | - |
| 1778022357 | 12.78° C | 41% | 1007.8 hPa | 0 mm | - | 58 W/m² | - |
| 1778022053 | 12.78° C | 42% | 1008.2 hPa | 0 mm | - | 62 W/m² | - |
| 1778021750 | 12.78° C | 48% | 1007.9 hPa | 0 mm | - | 55 W/m² | - |
| 1778021446 | 12.78° C | 44% | 1008.1 hPa | 0 mm | - | 63 W/m² | - |
| 1778021143 | 12.78° C | 45% | 1008.1 hPa | 0 mm | - | 76 W/m² | - |
| 1778020840 | 12.78° C | 44% | 1008.5 hPa | 0 mm | - | 92 W/m² | - |
| 1778020537 | 12.78° C | 46% | 1008.2 hPa | 0 mm | - | 78 W/m² | - |
| 1778020233 | 12.78° C | 42% | 1008.2 hPa | 0 mm | - | 89 W/m² | - |
| 1778019930 | 12.78° C | 42% | 1008.3 hPa | 0 mm | - | 105 W/m² | - |
| 1778019626 | 12.78° C | 42% | 1008.3 hPa | 0 mm | - | 104 W/m² | - |
| 1778019323 | 13.33° C | 48% | 1008.4 hPa | 0 mm | - | 124 W/m² | - |
* Rain latest hour (hover to see other rain measurements)
** Current wind speed in m/s (hover to see current wind gust speed)